Location: ActonStarParty
(42.4766°N, 71.4538°W)
Time: 09:07:44
(UTC-04:00)

Helios 1B rocket - Pass Details

Date: 19 April 2018
Orbit: 577 x 584 km, 98.2° (Epoch: 22 May)

Event Time Altitude Azimuth Distance (km) Brightness Sun altitude
Rises 21:34:26 0° 24° (NNE) 2,810 6.1 -20.7°
Reaches altitude 10° 21:36:49 10° 35° (NE) 1,907 5.1 -21.0°
Enters shadow 21:38:34 21° 54° (NE) 1,352 4.1 -21.3°
